Visibility
15.0 15.0 15.0 15.0 15.0 15.0 8.2 3.5 15.0 7.6 5.6 0.7 15.0 15.0 15.0 15.0 15.0 15.0 15.0 15.0 15.0 15.0 15.0 15.0 15.0 15.0 15.0 15.0 15.0 15.0 14.9 8.2 14.4 15.0 14.8 10.7 15.0 15.0 15.0 15.0 15.0 15.0 15.0 15.0
15.0 15.0 15.0 15.0 15.0 15.0 15.0 6.8 4.3 1.7 2.7 15.0 15.0 15.0 15.0 15.0 15.0 15.0 15.0 15.0 15.0 15.0 15.0 15.0 15.0 15.0 15.0 15.0 15.0 15.0 15.0 15.0 15.0 15.0 6.1 12.4 11.9 14.8 15.0 15.0 15.0 15.0 15.0 15.0
1.2 15.0 15.0 15.0 15.0 15.0 15.0 15.0 15.0 15.0 15.0 15.0 15.0 15.0 15.0 15.0 15.0 15.0 15.0 15.0 15.0 15.0 15.0 15.0 15.0 15.0 15.0 15.0 15.0 15.0 15.0 15.0 15.0 15.0 15.0 15.0 14.3 14.9 15.0 15.0 15.0 15.0 15.0 15.0
15.0 15.0 11.9 15.0 15.0 15.0 15.0 15.0 15.0 15.0 15.0 15.0 15.0 15.0 15.0 15.0 15.0 15.0 15.0 15.0 15.0 15.0 15.0 15.0 15.0 15.0 15.0 15.0 15.0 15.0 15.0 15.0 15.0 15.0 15.0 15.0 5.0 4.8 15.0 15.0 15.0 15.0 15.0 15.0
15.0 15.0 15.0 15.0 15.0 15.0 15.0 15.0 15.0 15.0 15.0 15.0 15.0 15.0 15.0 15.0 15.0 15.0 15.0 15.0 15.0 15.0 15.0 15.0 15.0 15.0 15.0 15.0 15.0 15.0 15.0 15.0 15.0 15.0 15.0 15.0 5.7 13.9 15.0 13.7 15.0 14.9 15.0 15.0
15.0 15.0 15.0 15.0 15.0 15.0 15.0 15.0 15.0 15.0 15.0 15.0 15.0 8.7 15.0 15.0 15.0 15.0 15.0 15.0 15.0 15.0 15.0 15.0 15.0 15.0 15.0 15.0 15.0 15.0 15.0 15.0 15.0 15.0 15.0 15.0 15.0 15.0 15.0 15.0 15.0 15.0 15.0 15.0
15.0 2.4 15.0 15.0 15.0 15.0 15.0 15.0 15.0 15.0 15.0 15.0 15.0 15.0 15.0 15.0 15.0 15.0 15.0 15.0 15.0 15.0 15.0 15.0 15.0 15.0 15.0 15.0 15.0 15.0 15.0 15.0 15.0 15.0 15.0 15.0 13.6 8.5 15.0 15.0 15.0 15.0 15.0 15.0
15.0 15.0 15.0 15.0 15.0 15.0 15.0 9.1 15.0 12.6 15.0 15.0 15.0 15.0 15.0 15.0 15.0 15.0 15.0 15.0 15.0 15.0 15.0 15.0 15.0 15.0 15.0 15.0 15.0 15.0 15.0 15.0 15.0 15.0 15.0 13.1 5.4 11.5 8.0 10.4 15.0 15.0 15.0 15.0
15.0 1.8 15.0 15.0 15.0 15.0 15.0 15.0 4.7 15.0 15.0 15.0 15.0 15.0 15.0 15.0 15.0 15.0 15.0 15.0 15.0 15.0 15.0 15.0 15.0 15.0 15.0 15.0 15.0 15.0 15.0 15.0 15.0 15.0 15.0 15.0 5.4 4.9 2.1 0.6 5.6 15.0 15.0 15.0
15.0 15.0 15.0 15.0 15.0 4.5 4.1 9.7 9.7 15.0 15.0 15.0 14.7 15.0 15.0 15.0 15.0 15.0 15.0 15.0 15.0 15.0 15.0 12.5 15.0 15.0 15.0 15.0 15.0 15.0 15.0 15.0 15.0 15.0 15.0 15.0 15.0 14.3 3.8 0.4 0.4 7.1 15.0 15.0
15.0 15.0 15.0 15.0 6.0 3.4 3.8 15.0 14.4 15.0 15.0 15.0 4.5 13.1 14.0 15.0 15.0 15.0 15.0 15.0 15.0 4.4 4.3 15.0 15.0 15.0 15.0 15.0 15.0 7.0 15.0 15.0 15.0 15.0 15.0 15.0 15.0 15.0 2.5 15.0 13.3 15.0 15.0 15.0
11.9 15.0 15.0 15.0 7.6 7.9 6.5 0.6 0.4 8.7 15.0 15.0 10.1 15.0 10.9 15.0 15.0 9.2 15.0 7.5 7.5 15.0 13.4 15.0 15.0 15.0 15.0 15.0 15.0 1.3 1.7 15.0 15.0 15.0 15.0 15.0 14.4 6.1 11.2 2.9 15.0 15.0 15.0 15.0
3.7 15.0 5.5 15.0 14.8 1.6 0.1 0.2 0.3 11.3 7.8 11.5 15.0 6.4 5.3 8.2 7.1 1.4 4.8 10.1 13.4 15.0 15.0 15.0 15.0 12.0 15.0 15.0 9.5 1.4 0.7 3.0 7.4 13.9 15.0 14.7 14.6 14.7 0.9 15.0 4.5 7.3 11.5 10.2
15.0 5.9 9.8 3.6 0.9 0.5 0.2 0.3 4.4 4.4 4.2 5.4 9.0 11.3 5.4 4.0 1.6 5.8 7.5 15.0 15.0 15.0 14.8 6.2 4.8 9.4 15.0 15.0 11.9 2.7 1.8 4.0 3.6 7.1 8.5 7.8 6.8 12.5 15.0 0.3 15.0 15.0 9.5 13.1
10.2 4.4 1.3 0.4 0.3 0.2 0.2 0.9 15.0 15.0 15.0 15.0 15.0 15.0 14.1 4.1 12.2 15.0 15.0 15.0 15.0 3.8 14.4 15.0 15.0 15.0 15.0 13.3 1.8 1.5 1.3 1.9 2.3 3.7 4.0 1.1 0.3 1.8 3.8 0.3 15.0 15.0 15.0 12.2
4.6 4.7 7.2 0.4 0.6 0.7 0.7 14.5 5.5 15.0 15.0 15.0 15.0 15.0 15.0 15.0 15.0 15.0 15.0 15.0 9.4 15.0 15.0 15.0 14.1 15.0 4.7 2.5 3.3 1.6 3.1 8.2 5.3 1.4 1.1 0.9 1.1 0.1 0.7 0.1 9.0 15.0 15.0 15.0
0.5 4.3 3.2 13.9 14.5 6.6 13.0 15.0 15.0 15.0 15.0 15.0 15.0 15.0 15.0 15.0 15.0 15.0 15.0 15.0 15.0 15.0 15.0 15.0 15.0 15.0 0.8 3.9 2.5 0.3 1.0 1.7 5.8 5.7 3.1 6.6 0.3 0.3 0.3 0.1 0.5 0.7 7.3 15.0
0.7 0.9 0.8 0.3 0.3 1.2 15.0 15.0 15.0 15.0 15.0 15.0 15.0 15.0 15.0 15.0 15.0 15.0 15.0 15.0 15.0 15.0 15.0 15.0 15.0 2.4 2.1 15.0 2.9 0.4 4.0 2.9 1.5 0.7 0.7 0.8 0.2 0.4 0.1 0.1 0.1 0.5 0.3 2.9
3.8 0.4 0.6 1.3 14.6 15.0 15.0 15.0 15.0 15.0 15.0 15.0 15.0 15.0 15.0 15.0 15.0 15.0 15.0 15.0 15.0 15.0 15.0 15.0 14.6 2.2 5.9 3.6 0.2 6.0 14.6 3.3 2.1 2.4 1.1 0.2 0.2 0.9 0.3 0.1 0.2 0.9 1.8 0.4
15.0 14.8 13.7 15.0 15.0 15.0 15.0 15.0 15.0 15.0 15.0 15.0 15.0 15.0 15.0 15.0 15.0 15.0 15.0 15.0 15.0 15.0 15.0 15.0 1.9 3.3 14.7 1.0 7.8 15.0 4.1 4.0 1.5 2.4 4.6 2.3 0.9 0.2 0.2 0.1 0.1 0.2 0.2 0.1
11.5 15.0 15.0 15.0 15.0 15.0 15.0 15.0 15.0 15.0 15.0 15.0 15.0 15.0 15.0 15.0 15.0 15.0 15.0 7.8 15.0 15.0 14.3 12.1 15.0 2.3 15.0 0.1 5.7 4.1 4.1 4.4 3.4 1.8 0.7 0.3 0.1 0.3 0.2 0.3 0.2 0.2 0.2 0.5
11.2 13.5 15.0 15.0 15.0 15.0 15.0 15.0 15.0 15.0 15.0 15.0 15.0 15.0 15.0 15.0 15.0 15.0 15.0 15.0 15.0 14.1 15.0 14.9 13.7 15.0 1.4 3.2 12.7 15.0 4.1 4.7 4.1 3.9 4.1 0.7 0.4 0.7 0.7 0.2 0.2 0.2 0.4 0.4
15.0 15.0 15.0 15.0 10.9 15.0 15.0 15.0 15.0 15.0 15.0 15.0 15.0 9.4 1.3 4.3 6.6 1.0 8.2 15.0 15.0 15.0 10.2 6.1 12.0 7.7 0.1 13.9 15.0 15.0 14.9 9.6 2.9 2.9 3.1 1.5 0.4 0.4 0.5 0.2 0.2 0.2 0.2 0.2
14.8 11.5 7.7 12.3 7.9 2.7 3.8 15.0 15.0 15.0 15.0 15.0 6.1 1.7 0.5 1.3 11.4 14.8 15.0 11.5 8.2 12.6 0.7 5.6 14.9 3.4 0.1 15.0 15.0 6.9 4.1 10.5 8.6 3.7 2.3 1.2 0.4 0.2 0.3 0.3 0.3 0.3 0.2 0.1
15.0 15.0 10.8 4.2 2.1 2.7 5.0 3.8 0.6 2.0 0.6 0.7 1.3 7.4 15.0 6.8 0.4 12.2 15.0 12.9 3.4 12.5 9.8 14.0 6.5 6.4 2.9 15.0 15.0 2.7 4.7 15.0 1.1 0.3 1.9 1.0 1.7 0.4 0.2 0.2 0.2 0.2 0.2 0.3
6.6 0.9 0.3 0.3 0.2 0.2 0.2 0.2 0.3 0.6 0.2 0.7 4.1 0.5 1.3 15.0 15.0 8.4 7.4 1.5 0.8 7.7 14.8 15.0 15.0 10.6 9.9 15.0 0.8 1.9 4.1 9.9 7.7 3.1 0.3 1.7 1.1 0.4 0.3 0.2 0.3 0.1 0.3 0.2
11.3 5.6 0.3 2.3 12.2 0.7 0.4 0.1 0.1 0.2 0.5 0.4 2.7 15.0 2.1 0.8 0.8 0.2 0.2 0.7 15.0 15.0 15.0 11.4 15.0 15.0 14.7 1.5 1.4 7.1 8.7 7.1 3.5 0.4 0.6 1.0 1.5 0.6 0.3 0.3 0.2 0.2 0.2 0.2